TimeEDT,TemperatureF,Dew PointF,Humidity,Sea Level PressureIn,VisibilityMPH,Wind Direction,Wind SpeedMPH,Gust SpeedMPH,PrecipitationIn,Events,Conditions,WindDirDegrees,DateUTC
12:10 AM,44.6,39.2,81,29.90,8.0,WNW,4.6,-,N/A,,Overcast,300,2013-03-17 04:10:00
12:51 AM,44.1,37.9,79,29.92,8.0,NNW,5.8,-,N/A,,Overcast,330,2013-03-17 04:51:00
1:13 AM,44.6,37.4,76,29.90,8.0,NNW,5.8,-,N/A,,Overcast,340,2013-03-17 05:13:00
1:51 AM,43.0,37.9,82,29.95,7.0,NW,6.9,-,N/A,,Overcast,320,2013-03-17 05:51:00
2:03 AM,42.8,37.4,81,29.93,7.0,NNW,5.8,-,N/A,,Overcast,330,2013-03-17 06:03:00
2:23 AM,42.8,37.4,81,29.93,7.0,NNW,5.8,-,N/A,,Overcast,340,2013-03-17 06:23:00
2:51 AM,41.0,37.9,89,29.96,7.0,North,4.6,-,N/A,,Overcast,350,2013-03-17 06:51:00
3:06 AM,41.0,37.4,87,29.93,6.0,NNW,4.6,-,N/A,,Overcast,330,2013-03-17 07:06:00
3:51 AM,41.0,37.0,86,29.96,6.0,Calm,Calm,-,N/A,,Overcast,0,2013-03-17 07:51:00
4:51 AM,39.9,36.0,86,29.94,7.0,North,5.8,-,N/A,,Overcast,10,2013-03-17 08:51:00
5:06 AM,39.2,35.6,87,29.92,7.0,North,6.9,-,N/A,,Overcast,360,2013-03-17 09:06:00
5:28 AM,39.2,35.6,87,29.93,8.0,WNW,3.5,-,N/A,,Overcast,300,2013-03-17 09:28:00
5:51 AM,39.0,35.1,86,29.98,7.0,NNW,5.8,-,N/A,,Overcast,330,2013-03-17 09:51:00
6:51 AM,37.0,34.0,89,30.01,4.0,NNW,10.4,-,N/A,,Overcast,340,2013-03-17 10:51:00
6:58 AM,37.4,35.6,93,29.99,2.5,NW,8.1,-,N/A,,Overcast,320,2013-03-17 10:58:00
7:07 AM,35.6,33.8,93,29.99,2.0,North,8.1,-,N/A,,Overcast,350,2013-03-17 11:07:00
7:51 AM,35.1,33.1,92,30.05,2.5,North,8.1,-,N/A,,Overcast,360,2013-03-17 11:51:00
8:05 AM,35.6,33.8,93,30.02,1.5,NNW,8.1,-,N/A,,Overcast,330,2013-03-17 12:05:00
8:20 AM,35.6,33.8,93,30.04,1.5,NNW,5.8,-,N/A,,Overcast,330,2013-03-17 12:20:00
8:43 AM,33.8,32.0,93,30.05,2.0,North,5.8,-,N/A,,Overcast,350,2013-03-17 12:43:00
8:51 AM,34.0,32.0,92,30.10,2.0,NW,4.6,-,N/A,,Overcast,320,2013-03-17 12:51:00
9:49 AM,33.8,30.2,87,30.07,1.5,Calm,Calm,-,0.01,Snow,Light Snow,0,2013-03-17 13:49:00
9:51 AM,33.1,30.9,92,30.12,1.2,Calm,Calm,-,0.01,Snow,Light Snow,0,2013-03-17 13:51:00
10:03 AM,33.8,30.2,87,30.06,0.8,North,3.5,-,0.01,Snow,Light Snow,350,2013-03-17 14:03:00
10:16 AM,33.8,30.2,87,30.07,1.0,NNW,4.6,-,0.01,Snow,Light Snow,330,2013-03-17 14:16:00
10:19 AM,33.8,30.2,87,30.07,0.8,NW,3.5,-,0.01,Snow,Light Snow,320,2013-03-17 14:19:00
10:39 AM,33.8,30.2,87,30.07,1.0,Calm,Calm,-,0.02,Snow,Light Snow,0,2013-03-17 14:39:00
10:48 AM,33.8,30.2,87,30.08,0.8,Calm,Calm,-,0.03,Snow,Light Snow,0,2013-03-17 14:48:00
10:51 AM,33.1,30.9,92,30.13,0.8,Calm,Calm,-,0.03,Snow,Light Snow,0,2013-03-17 14:51:00
11:37 AM,32.0,30.2,93,30.10,0.5,North,4.6,-,0.03,Fog-Snow,Snow,360,2013-03-17 15:37:00
11:51 AM,32.0,30.0,92,30.15,0.8,North,6.9,-,0.04,Snow,Light Snow,360,2013-03-17 15:51:00
12:00 PM,32.0,30.2,93,30.09,1.0,North,4.6,-,0.00,Snow,Light Snow,350,2013-03-17 16:00:00
12:51 PM,33.1,30.0,89,30.12,2.0,Calm,Calm,-,0.01,Snow,Light Snow,0,2013-03-17 16:51:00
1:06 PM,33.8,28.4,81,30.07,4.0,NNW,5.8,-,0.01,Snow,Light Snow,340,2013-03-17 17:06:00
1:33 PM,33.8,28.4,81,30.08,4.0,North,8.1,-,0.01,Snow,Light Snow,360,2013-03-17 17:33:00
1:51 PM,33.1,30.0,89,30.14,2.0,North,4.6,-,0.01,Snow,Light Snow,350,2013-03-17 17:51:00
1:59 PM,33.8,28.4,81,30.09,1.5,Calm,Calm,-,0.00,Snow,Light Snow,0,2013-03-17 17:59:00
2:51 PM,34.0,30.9,89,30.13,3.0,North,5.8,-,0.00,Snow,Light Snow,350,2013-03-17 18:51:00
3:16 PM,33.8,30.2,87,30.07,4.0,Calm,Calm,-,0.00,Snow,Light Snow,0,2013-03-17 19:16:00
3:29 PM,33.8,30.2,87,30.07,1.8,Calm,Calm,-,0.00,Snow,Light Snow,0,2013-03-17 19:29:00
3:40 PM,33.8,30.2,87,30.06,1.5,Calm,Calm,-,0.01,Snow,Light Snow,0,2013-03-17 19:40:00
3:51 PM,34.0,30.9,89,30.12,1.2,Calm,Calm,-,0.01,Snow,Light Snow,0,2013-03-17 19:51:00
4:14 PM,33.8,30.2,87,30.06,3.0,Calm,Calm,-,0.00,Snow,Light Snow,0,2013-03-17 20:14:00
4:51 PM,35.1,32.0,89,30.13,3.0,Calm,Calm,-,0.01,Snow,Light Snow,0,2013-03-17 20:51:00
4:57 PM,33.8,30.2,87,30.07,2.5,Calm,Calm,-,0.00,Snow,Light Snow,0,2013-03-17 20:57:00
5:28 PM,33.8,32.0,93,30.08,1.8,Calm,Calm,-,0.01,Snow,Light Snow,0,2013-03-17 21:28:00
5:51 PM,33.1,30.9,92,30.15,0.8,Calm,Calm,-,0.04,Snow,Light Snow,0,2013-03-17 21:51:00
6:47 PM,33.8,30.2,87,30.09,1.0,Calm,Calm,-,0.03,Snow,Light Snow,0,2013-03-17 22:47:00
6:51 PM,33.1,30.9,92,30.15,0.8,Calm,Calm,-,0.03,Snow,Light Snow,0,2013-03-17 22:51:00
7:29 PM,33.8,30.2,87,30.09,1.2,Calm,Calm,-,0.02,Snow,Light Snow,0,2013-03-17 23:29:00
7:51 PM,33.1,30.9,92,30.15,1.2,Calm,Calm,-,0.03,Snow,Light Snow,0,2013-03-17 23:51:00
8:51 PM,33.1,30.9,92,30.16,1.8,Calm,Calm,-,0.03,Snow,Light Snow,0,2013-03-18 00:51:00
9:01 PM,32.0,30.2,93,30.09,1.8,Calm,Calm,-,0.00,Snow,Light Snow,0,2013-03-18 01:01:00
9:10 PM,33.8,30.2,87,30.09,2.5,Calm,Calm,-,0.00,Snow,Light Snow,0,2013-03-18 01:10:00
9:17 PM,33.8,30.2,87,30.09,2.0,Calm,Calm,-,0.00,Snow,Light Snow,0,2013-03-18 01:17:00
9:24 PM,33.8,30.2,87,30.09,1.5,Calm,Calm,-,0.00,Snow,Light Snow,0,2013-03-18 01:24:00
9:40 PM,33.8,30.2,87,30.09,2.5,West,3.5,-,N/A,,Overcast,260,2013-03-18 01:40:00
9:51 PM,33.1,30.9,92,30.15,2.5,Calm,Calm,-,0.00,,Overcast,0,2013-03-18 01:51:00
10:03 PM,33.8,30.2,87,30.09,2.5,Calm,Calm,-,0.00,,Overcast,0,2013-03-18 02:03:00
10:11 PM,33.8,30.2,87,30.09,3.0,Calm,Calm,-,0.00,,Overcast,0,2013-03-18 02:11:00
10:51 PM,33.1,30.9,92,30.16,2.5,Calm,Calm,-,0.00,,Overcast,0,2013-03-18 02:51:00
11:27 PM,33.8,30.2,87,30.08,2.0,Calm,Calm,-,0.03,Rain,Light Rain,0,2013-03-18 03:27:00
11:39 PM,33.8,30.2,87,30.08,1.5,Calm,Calm,-,0.04,Rain,Light Rain,0,2013-03-18 03:39:00
11:51 PM,33.1,30.9,92,30.14,2.0,Calm,Calm,-,0.05,Rain,Light Rain,0,2013-03-18 03:51:00